This demonstration page uses our WeatherBlox Daily Observations layout. Learn more.

Left ArrowRight Arrow

41.86663, -103.66717

Hourly Observations for August 8, 2021

Temp ( °F °C ) Dew Point ( °F °C ) Humidity (%) Winds ( mph kmh ) Pressure ( in mb ) Visibility ( mi km ) Precip ( " mm )
12:53 am 00:53 Clear 59 15 52 11.1 78 78 NNE 3 6 29.80 1009 9 14 N/A
1:53 am 01:53 Clear 57 13.9 50 10 78 78 N 3 6 29.80 1009 8 13 N/A
2:53 am 02:53 Clear 58 14.4 50 10 75 75 N N/A 29.79 1009 8 13 N/A
3:53 am 03:53 Clear 56 13.3 50 10 81 81 N 3 6 29.79 1009 8 13 N/A
4:53 am 04:53 Clear 56 13.3 49 9.4 77 77 N 5 7 29.79 1009 8 13 N/A
5:53 am 05:53 Clear 54 12.2 49 9.4 83 83 N N/A 29.79 1009 7 11 N/A
6:53 am 06:53 Hazy 56 13.3 50 10 81 81 N 6 9 29.80 1009 6 10 N/A
7:53 am 07:53 Hazy 62 16.7 51 10.6 67 67 WNW 5 7 29.80 1009 6 10 N/A
8:53 am 08:53 Hazy 69 20.6 51 10.6 53 53 NW 7 11 29.79 1009 6 10 N/A
9:53 am 09:53 Hazy 77 25 49 9.4 37 37 WNW 7 11 29.79 1009 5 8 N/A
10:53 am 10:53 Hazy 83 28.3 48 8.9 30 30 WNW 8 13 29.78 1008 5 8 N/A
11:53 am 11:53 Hazy 88 31.1 49 9.4 26 26 NW 9 15 29.75 1008 5 8 N/A
12:53 pm 12:53 Hazy 93 33.9 48 8.9 21 21 VRB 6 9 29.73 1007 6 10 N/A
1:53 pm 13:53 Sunny 95 35 46 7.8 19 19 VRB 6 9 29.71 1006 7 11 N/A
2:53 pm 14:53 Sunny 96 35.6 45 7.2 17 17 N 6 9 29.70 1006 8 13 N/A
3:53 pm 15:53 Sunny 97 36.1 43 6.1 16 16 NNW 9 15 29.68 1005 10 16 N/A
4:53 pm 16:53 Sunny 97 36.1 41 5 14 14 WNW 8 13 29.67 1005 10 16 N/A
5:53 pm 17:53 Sunny 98 36.7 39 3.9 13 13 WNW 6 9 29.67 1005 10 16 N/A
6:53 pm 18:53 Sunny 96 35.6 40 4.4 14 14 N N/A 29.67 1005 10 16 N/A
7:53 pm 19:53 Sunny 84 28.9 53 11.7 34 34 E 5 7 29.68 1005 10 16 N/A
8:53 pm 20:53 Clear 74 23.3 57 13.9 56 56 E 6 9 29.70 1006 10 16 N/A
9:53 pm 21:53 Clear 71 21.7 55 12.8 57 57 E 3 6 29.70 1006 8 13 N/A
10:53 pm 22:53 Clear 68 20 52 11.1 57 57 E 6 9 29.70 1006 9 14 N/A
11:53 pm 23:53 Clear 66 18.9 51 10.6 59 59 ENE 7 11 29.68 1005 8 13 N/A

Powered by AerisWeather